Regional Weather Roundup
Issued by NWS State College, PA

Home | Current Version | Previous Version | Graphics & Text | Print | Product List | Glossary Off
Versions: 1 2 3 4 5 6 7 8 9 10 11 12 13 14 15 16 17 18 19 20 21 22 23 24 25 26 27 28 29 30 31 32 33 34 35 36 37 38 39 40 41 42 43 44 45 46 47 48 49 50

000
ASUS41 KCTP 050603
RWRCTP

REGIONAL WEATHER ROUNDUP
NATIONAL WEATHER SERVICE STATE COLLEGE PA
100 AM EST THU MAR 05 2015

Note: "fair" indicates few or no clouds below 12,000 feet with no
significant weather and/or obstructions to visibility.

* = STATION THAT DOES NOT REPORT PRECIPITATION /E.G. RAIN...SNOW...ETC/
    THUNDER OR FOG.

PAZ002>004-007>009-013>016-020>023-029>032-050700-
WESTERN PENNSYLVANIA

CITY           SKY/WX    TMP DP  RH WIND       PRES   REMARKS
ERIE           CLOUDY    21   9  59 NW10G18   30.16R WCI  10
MEADVILLE      CLOUDY    20   9  62 NW10G21   30.08R WCI   9
FRANKLIN*      CLOUDY    25  12  58 NW9G18    30.06S
NEW CASTLE     CLOUDY    25  12  57 NW14G22   30.11R WCI  13
BEAVER COUNTY  NOT AVBL
BUTLER*        CLOUDY    27  21  80 NW6       30.09R
PITTSBURGH INT LGT SNOW  26  23  88 NW20      30.08R VSB 1   WCI  12
PITTSBURGH     LGT SNOW  28  24  85 NW10G16   30.05R VSB 1
INDIANA*       MOCLDY    28  28 100 NW9G16    30.06R FOG
LATROBE        LGT SNOW  28  28 100 W7        30.07R
WASHINGTON CO* CLOUDY    28  25  86 W5        30.09R
$$

PAZ004>006-010>012-017>019-024>028-033>037-041-042-045-046-049>053-050700-
CENTRAL PENNSYLVANIA

CITY           SKY/WX    TMP DP  RH WIND       PRES   REMARKS
BRADFORD       CLOUDY    24  14  65 NW17      29.96R WCI  11
DUBOIS         CLOUDY    26  20  77 NW15G26   29.98S HAZE    WCI  14
CLEARFIELD     FLURRIES  29  22  75 W8        29.98S
JOHNSTOWN      LGT SNOW  27  24  89 W10       29.94R FOG
ALTOONA        LGT SNOW  32  28  85 NW9       29.97R FOG
STATE COLLEGE  CLOUDY    32  25  76 W8        29.97S
WILLIAMSPORT   CLOUDY    36  28  73 W9        29.96R
SELINSGROVE    CLOUDY    36  30  79 CALM      29.98R
FT INDIANTOWN  LGT RAIN  35  32  89 NW3       29.94F
CAPITAL CITY   RAIN      34  32  92 W5        29.96S FOG
HARRISBURG     LGTSLEET  34  32  92 NW6       29.95F
YORK           LGT RAIN  34  34 100 CALM      29.95S FOG
$$

PAZ038>040-043-044-047-048-054-055-060>062-067>071-050700-
EASTERN PENNSYLVANIA

CITY           SKY/WX    TMP DP  RH WIND       PRES   REMARKS
SCRANTON       LGT SNOW  32  29  88 N8        29.92R FOG
MOUNT POCONO   LGT SNOW  31  28  89 NW12G18   29.85R VSB 1
ALLENTOWN      LGT RAIN  36  32  85 W5        29.92F FOG
QUAKERTOWN*    CLOUDY    36  34  93 NW3       29.93R
READING        LGT RAIN  35  33  92 W7        29.94S
LANCASTER      LGT RAIN  35  33  92 W9        29.94S FOG
COATESVILLE    LGT RAIN  37  37 100 NW8       29.94R
POTTSTOWN      RAIN      36  36 100 W3        29.94S FOG
BLUE BELL      CLOUDY    37  37 100 CALM      29.92S
DOYLESTOWN     LGT RAIN  36  35  96 W5        29.91F
WILLOW GROVE   NOT AVBL
NORTH PHILA    LGT RAIN  41  50 100 NW5       29.95S
PHILADELPHIA   LGT RAIN  40  37  89 NW7       29.95R
$$



USA.gov is the U.S. government's official web portal to all federal, state and local government web resources and services.